Regional Weather Roundup
Issued by NWS

Home | Current Version | Previous Version | Text Only | Print | Product List | Glossary Off
Versions: 1 2 3 4 5 6 7 8 9 10 11 12 13 14 15 16 17 18 19 20 21 22 23 24 25 26 27 28 29 30 31 32 33 34 35 36 37 38 39 40 41 42 43 44 45 46 47 48 49 50

000
ASUS45 KPSR 190900
RWRAZ

ARIZONA REGIONAL HOURLY WEATHER ROUNDUP
NATIONAL WEATHER SERVICE PHOENIX AZ
200 AM MST SUN APR 19 2015

NOTE: FAIR INDICATES FEW OR NO CLOUDS BELOW 12,000 FEET WITH NO
SIGNIFICANT WEATHER AND/OR OBSTRUCTIONS TO VISIBILITY.

AZZ001>003-036-191000-
NORTHWEST ARIZONA

CITY           SKY/WX    TMP DP  RH WIND       PRES   REMARKS
KINGMAN        CLEAR     48  16  27 SE7       29.96S
$$

AZZ004>008-015-016-018-191000-
NORTH CENTRAL ARIZONA

CITY           SKY/WX    TMP DP  RH WIND       PRES   REMARKS
GRAND CANYON   CLEAR     27  13  55 CALM      30.11F
WILLIAMS       CLEAR     32  16  51 S10       30.17F WCI  24
PRESCOTT       CLEAR     49  14  24 S8        30.04F
FLAGSTAFF      NOT AVBL
PAYSON         MOCLDY    52  16  24 CALM      30.05S
PAGE           MOCLDY    55  22  27 CALM      30.02R
$$

AZZ009>014-017-191000-
NORTHEAST ARIZONA

CITY           SKY/WX    TMP DP  RH WIND       PRES   REMARKS
WINSLOW        NOT AVBL
SAINT JOHNS    MOCLDY    43  17  35 SE3       30.05R
WINDOW ROCK    PTCLDY    36  24  62 CALM      30.07F
SHOW LOW       CLEAR     45  16  31 S10       30.08S
$$

AZZ023-191000-
GREATER PHOENIX AREA

CITY           SKY/WX    TMP DP  RH WIND       PRES   REMARKS
PHOENIX        CLEAR     72  24  16 N5        29.86R
LUKE AFB       CLEAR     71  24  17 SW8       29.85S
DEER VALLEY    CLEAR     59  20  22 E5        29.87S
SCOTTSDALE     CLEAR     68  22  17 CALM      29.89F
$$

AZZ027-028-191000-
SOUTHWEST MARICOPA COUNTY AND PINAL COUNTY

CITY           SKY/WX    TMP DP  RH WIND       PRES   REMARKS
CASA GRANDE    CLEAR     57  18  21 NE5       29.88S
GILA BEND      FAIR      66  22  19 NE2       29.87R
$$

AZZ503-504-507>509-191000-
SOUTHEAST ARIZONA

CITY           SKY/WX    TMP DP  RH WIND       PRES   REMARKS
TUCSON         CLEAR     57  20  23 SE7       29.98S
NOGALES        CLEAR     48  24  39 CALM      30.03S
SIERRA VISTA   CLEAR     57  14  18 W10       30.05S
SAFFORD        CLEAR     58  17  20 N9        29.93F
$$

AZZ020-021-025-026-031-191000-
SOUTHWEST ARIZONA

CITY           SKY/WX    TMP DP  RH WIND       PRES   REMARKS
YUMA           NOT AVBL
$$

CAZ031-033-041-043-047-048-061-191000-
SOUTHERN CALIFORNIA

CITY           SKY/WX    TMP DP  RH WIND       PRES   REMARKS
DOWNTOWN L.A.  CLEAR     58  52  80 CALM      29.96F
L.A. AIRPORT   PTCLDY    57  54  89 SW3       29.97F
SAN DIEGO      PTCLDY    62  56  80 CALM      29.98F
BURBANK        CLEAR     59  48  67 CALM      29.96S
ONTARIO        PTCLDY    58  50  75 CALM      29.96F
RIVERSIDE      CLEAR     60  49  66 CALM      29.97F
PALM SPRINGS   CLEAR     74  31  20 CALM      29.86S
EL CENTRO NAS  CLEAR     66  27  23 W9        29.83F
IMPERIAL       CLEAR     63  33  32 W8        29.83F
BLYTHE         CLEAR     69  30  23 CALM      29.84S
$$

NVZ020-UTZ003-191000-
SOUTHERN NEVADA-UTAH

CITY           SKY/WX    TMP DP  RH WIND       PRES   REMARKS
LAS VEGAS      NOT AVBL
SALT LAKE CITY CLEAR     49  36  61 SE6       30.03S
$$

NMZ009-TXZ055-191000-
NEW MEXICO-WEST TEXAS

CITY           SKY/WX    TMP DP  RH WIND       PRES   REMARKS
ALBUQUERQUE    PTCLDY    50  31  48 N9        30.00R
EL PASO        CLEAR     66  16  14 W22G29    29.93F
$$


........................KEY........................
SKY/WX - SKY CONDITION/WEATHER
TMP    - TEMPERATURE IN FAHRENHEIT
DP     - DEW POINT IN FAHRENHEIT
RH     - RELATIVE HUMIDITY IN PERCENT
WIND   - DIRECTION AND SPEED IN MILES PER HOUR (MPH)
VRB    - VARIABLE WIND DIRECTION
PRES   - MEAN SEA LEVEL PRESSURE IN INCHES OF MERCURY
         F - FALLING PRESSURE   R - RISING PRESSURE
         S - STEADY PRESSURE
VSB    - VISIBILITY IN MILES
HX     - HEAT INDEX IN FAHRENHEIT
WCI    - WIND CHILL INDEX IN FAHRENHEIT
TC     - TEMPERATURE IN CELSIUS WHICH IS ALSO KNOWN AS
         TEMPERATURE IN CENTIGRADE
AFB    - AIR FORCE BASE
         LUKE AFB IS LUKE AIR FORCE BASE
         DAVIS-MONTHAN IS DAVIS-MONTHAN AIR FORCE BASE
NAS    - NAVAL AIR STATION
         EL CENTRO NAS IS EL CENTRO NAVAL AIR STATION
N/A    - NOT AVAILABLE




USA.gov is the U.S. government's official web portal to all federal, state and local government web resources and services.